Total_Precipitation_Accumulation
0.01 0.02 0.06 0.09 0.07 0.06 0.09 0.06 0.01 0.00 0.00 0.00 0.00 0.00 0.00 0.00 0.01 0.04 0.00 0.00 0.00 0.00 0.01 0.02 0.02 0.01 0.01 0.01 0.03 0.04 0.03 0.02 0.03 0.06 0.10 0.12 0.13 0.10 0.06 0.04 0.02 0.01 0.01 0.01 0.01 0.01 0.02 0.02 0.02
0.00 0.01 0.04 0.04 0.04 0.08 0.10 0.07 0.02 0.02 0.01 0.00 0.00 0.00 0.00 0.00 0.00 0.00 0.00 0.00 0.00 0.00 0.00 0.01 0.01 0.01 0.01 0.01 0.02 0.04 0.05 0.03 0.04 0.09 0.11 0.09 0.11 0.09 0.08 0.07 0.05 0.04 0.02 0.01 0.01 0.01 0.01 0.01 0.01
0.00 0.00 0.02 0.02 0.03 0.11 0.13 0.08 0.03 0.02 0.02 0.01 0.00 0.00 0.00 0.00 0.00 0.00 0.00 0.00 0.00 0.00 0.00 0.00 0.01 0.01 0.01 0.01 0.02 0.05 0.07 0.05 0.06 0.09 0.10 0.07 0.08 0.10 0.09 0.10 0.10 0.08 0.04 0.02 0.01 0.01 0.01 0.01 0.01
0.00 0.00 0.01 0.01 0.02 0.07 0.09 0.05 0.02 0.01 0.01 0.01 0.00 0.00 0.00 0.00 0.00 0.00 0.00 0.00 0.00 0.00 0.00 0.00 0.01 0.01 0.01 0.01 0.01 0.03 0.05 0.07 0.07 0.09 0.09 0.09 0.11 0.10 0.07 0.09 0.10 0.08 0.04 0.02 0.04 0.04 0.03 0.02 0.01
0.00 0.00 0.00 0.01 0.01 0.04 0.05 0.03 0.02 0.02 0.01 0.00 0.00 0.00 0.00 0.00 0.00 0.00 0.00 0.00 0.00 0.00 0.00 0.01 0.01 0.01 0.01 0.01 0.01 0.02 0.02 0.03 0.05 0.08 0.10 0.09 0.09 0.10 0.08 0.06 0.05 0.04 0.02 0.02 0.07 0.10 0.09 0.06 0.04
0.00 0.00 0.00 0.01 0.02 0.03 0.03 0.03 0.02 0.04 0.02 0.01 0.01 0.00 0.00 0.00 0.00 0.00 0.00 0.00 0.00 0.00 0.01 0.01 0.01 0.01 0.01 0.01 0.01 0.01 0.01 0.02 0.02 0.04 0.06 0.05 0.03 0.02 0.03 0.03 0.04 0.02 0.02 0.05 0.08 0.08 0.11 0.14 0.11
0.00 0.00 0.00 0.00 0.01 0.01 0.02 0.03 0.03 0.03 0.01 0.00 0.00 0.00 0.00 0.00 0.00 0.00 0.00 0.00 0.00 0.00 0.00 0.01 0.01 0.01 0.01 0.01 0.01 0.01 0.01 0.01 0.01 0.01 0.01 0.01 0.01 0.01 0.01 0.01 0.02 0.01 0.01 0.03 0.05 0.05 0.05 0.10 0.11
0.00 0.00 0.00 0.00 0.00 0.00 0.01 0.03 0.03 0.02 0.01 0.00 0.00 0.00 0.00 0.00 0.00 0.00 0.00 0.00 0.00 0.00 0.00 0.00 0.01 0.01 0.01 0.01 0.01 0.01 0.01 0.01 0.01 0.01 0.01 0.01 0.01 0.01 0.01 0.02 0.03 0.03 0.03 0.03 0.04 0.04 0.05 0.09 0.10
0.00 0.00 0.00 0.00 0.00 0.00 0.01 0.03 0.03 0.02 0.02 0.01 0.00 0.00 0.00 0.00 0.00 0.00 0.01 0.01 0.01 0.01 0.01 0.01 0.00 0.01 0.01 0.01 0.00 0.00 0.01 0.01 0.01 0.01 0.01 0.01 0.01 0.03 0.04 0.03 0.07 0.08 0.08 0.08 0.10 0.09 0.07 0.08 0.10
0.00 0.00 0.00 0.00 0.00 0.00 0.01 0.03 0.04 0.02 0.02 0.01 0.00 0.00 0.00 0.00 0.00 0.00 0.00 0.00 0.01 0.01 0.01 0.00 0.00 0.01 0.00 0.00 0.00 0.01 0.00 0.01 0.01 0.03 0.04 0.04 0.06 0.07 0.03 0.03 0.11 0.22 0.27 0.26 0.29 0.29 0.21 0.21 0.27
0.00 0.00 0.00 0.00 0.00 0.00 0.00 0.01 0.02 0.02 0.01 0.01 0.01 0.01 0.00 0.00 0.00 0.00 0.00 0.00 0.00 0.00 0.00 0.00 0.00 0.01 0.00 0.00 0.00 0.00 0.00 0.02 0.01 0.02 0.04 0.07 0.07 0.04 0.02 0.04 0.09 0.15 0.21 0.34 0.52 0.53 0.39 0.48 0.51
0.00 0.00 0.00 0.00 0.00 0.00 0.00 0.00 0.01 0.02 0.01 0.01 0.01 0.01 0.00 0.00 0.00 0.00 0.00 0.00 0.00 0.00 0.00 0.00 0.00 0.01 0.01 0.01 0.01 0.01 0.00 0.01 0.01 0.02 0.02 0.03 0.04 0.05 0.07 0.13 0.15 0.20 0.20 0.33 0.40 0.46 0.31 0.25 0.24
0.00 0.00 0.00 0.00 0.00 0.00 0.00 0.00 0.00 0.01 0.02 0.01 0.01 0.01 0.01 0.00 0.00 0.00 0.00 0.00 0.00 0.00 0.01 0.01 0.01 0.02 0.02 0.03 0.03 0.01 0.01 0.01 0.00 0.01 0.02 0.02 0.04 0.06 0.13 0.16 0.20 0.14 0.17 0.26 0.32 0.24 0.28 0.29 0.24
0.00 0.00 0.00 0.00 0.00 0.00 0.00 0.00 0.00 0.00 0.01 0.01 0.01 0.02 0.01 0.01 0.01 0.01 0.00 0.00 0.01 0.01 0.01 0.03 0.04 0.05 0.06 0.07 0.07 0.07 0.07 0.06 0.04 0.03 0.03 0.03 0.04 0.11 0.19 0.22 0.28 0.22 0.23 0.34 0.43 0.34 0.48 0.40 0.35
0.00 0.00 0.00 0.00 0.00 0.00 0.00 0.00 0.00 0.00 0.00 0.01 0.01 0.01 0.02 0.02 0.01 0.02 0.02 0.01 0.02 0.02 0.02 0.06 0.08 0.10 0.13 0.15 0.17 0.21 0.23 0.20 0.13 0.11 0.11 0.12 0.14 0.26 0.32 0.33 0.35 0.40 0.42 0.54 0.58 0.56 0.56 0.46 0.41
0.00 0.00 0.00 0.00 0.00 0.00 0.00 0.00 0.00 0.00 0.00 0.00 0.01 0.01 0.02 0.02 0.03 0.04 0.05 0.04 0.05 0.06 0.05 0.10 0.12 0.16 0.25 0.34 0.43 0.49 0.43 0.31 0.22 0.22 0.23 0.30 0.38 0.51 0.62 0.52 0.50 0.71 0.75 0.81 0.90 0.83 0.77 0.76 0.64
0.00 0.00 0.00 0.00 0.00 0.00 0.00 0.00 0.00 0.00 0.00 0.00 0.01 0.03 0.05 0.06 0.08 0.09 0.10 0.13 0.13 0.14 0.15 0.17 0.20 0.26 0.41 0.58 0.75 0.69 0.55 0.46 0.39 0.37 0.38 0.49 0.64 0.80 1.01 0.83 0.83 0.96 1.00 1.00 0.83 1.03 1.17 1.10 0.97
0.00 0.00 0.00 0.00 0.00 0.00 0.00 0.00 0.00 0.00 0.01 0.01 0.03 0.07 0.11 0.16 0.27 0.27 0.23 0.26 0.28 0.27 0.29 0.33 0.39 0.54 0.84 1.13 1.11 0.93 0.79 0.70 0.65 0.61 0.65 0.79 1.00 1.14 1.32 1.07 1.04 1.15 1.24 1.20 1.21 1.35 1.31 1.15 1.10
0.00 0.00 0.00 0.00 0.00 0.00 0.00 0.00 0.01 0.01 0.02 0.03 0.06 0.14 0.24 0.29 0.42 0.53 0.53 0.48 0.47 0.48 0.53 0.64 0.89 1.18 1.54 1.55 1.35 1.31 1.23 1.17 1.09 1.02 0.99 1.03 1.09 1.25 1.45 1.26 1.36 1.39 1.33 1.33 1.43 1.55 1.50 1.29 1.39
0.00 0.00 0.00 0.00 0.00 0.00 0.00 0.00 0.01 0.03 0.05 0.07 0.08 0.10 0.21 0.38 0.54 0.68 0.71 0.65 0.69 0.91 1.12 1.27 1.45 1.85 2.04 1.92 1.86 1.84 1.85 1.65 1.63 1.56 1.41 1.23 1.17 1.28 1.36 1.49 1.37 1.42 1.43 1.42 1.55 1.64 1.44 1.20 1.52
0.00 0.00 0.00 0.00 0.00 0.00 0.00 0.00 0.02 0.06 0.11 0.16 0.19 0.21 0.25 0.32 0.38 0.46 0.51 0.56 0.66 0.85 1.04 1.31 1.68 2.04 2.20 2.24 2.29 2.23 2.23 1.97 1.89 1.79 1.64 1.45 1.33 1.29 1.37 1.42 1.40 1.36 1.41 1.34 1.52 1.58 1.51 1.37 1.48
0.00 0.00 0.00 0.00 0.00 0.00 0.00 0.00 0.01 0.03 0.07 0.13 0.20 0.26 0.32 0.40 0.44 0.46 0.49 0.52 0.59 0.66 0.88 1.21 1.54 1.83 2.03 2.19 2.25 2.30 2.29 2.16 2.12 2.00 1.71 1.46 1.32 1.33 1.39 1.38 1.36 1.35 1.34 1.27 1.26 1.34 1.62 1.61 1.44
0.00 0.00 0.00 0.00 0.00 0.00 0.00 0.00 0.00 0.02 0.05 0.09 0.16 0.25 0.34 0.42 0.48 0.54 0.61 0.69 0.75 0.84 1.02 1.22 1.41 1.64 1.80 1.89 1.94 1.99 1.93 1.89 1.85 1.70 1.48 1.32 1.27 1.25 1.20 1.22 1.37 1.41 1.34 1.26 1.23 1.28 1.41 1.43 1.39
0.00 0.00 0.00 0.00 0.00 0.00 0.01 0.01 0.01 0.02 0.04 0.08 0.17 0.26 0.35 0.46 0.56 0.66 0.72 0.79 0.86 0.99 1.15 1.31 1.42 1.60 1.71 1.62 1.51 1.51 1.52 1.55 1.48 1.38 1.27 1.17 1.10 1.06 1.02 1.09 1.22 1.26 1.23 1.18 1.10 1.12 1.22 1.25 1.26
0.00 0.02 0.05 0.03 0.01 0.01 0.01 0.02 0.04 0.05 0.05 0.10 0.21 0.28 0.33 0.40 0.48 0.56 0.69 0.88 0.97 0.97 1.00 1.19 1.44 1.69 1.69 1.52 1.34 1.26 1.25 1.30 1.30 1.25 1.19 1.14 1.05 0.99 0.97 0.98 0.99 1.01 1.02 1.04 1.06 1.05 1.11 1.21 1.21
0.04 0.06 0.16 0.13 0.04 0.02 0.01 0.02 0.09 0.09 0.14 0.19 0.24 0.27 0.28 0.27 0.24 0.24 0.27 0.35 0.40 0.42 0.42 0.50 0.62 0.80 0.87 0.85 0.82 0.82 0.86 0.95 1.01 1.06 1.07 1.08 1.04 0.96 0.89 0.82 0.81 0.84 0.86 0.88 0.99 1.08 1.12 1.19 1.23
0.14 0.15 0.12 0.24 0.21 0.17 0.04 0.03 0.11 0.14 0.20 0.26 0.27 0.24 0.22 0.19 0.17 0.17 0.20 0.22 0.25 0.28 0.34 0.42 0.49 0.54 0.55 0.53 0.50 0.51 0.55 0.65 0.74 0.81 0.87 0.93 0.93 0.89 0.85 0.82 0.81 0.78 0.79 0.84 0.93 1.03 1.07 1.12 1.18
0.10 0.15 0.29 0.45 0.43 0.30 0.12 0.10 0.24 0.33 0.34 0.37 0.39 0.35 0.27 0.22 0.21 0.23 0.25 0.28 0.35 0.45 0.54 0.59 0.59 0.54 0.48 0.46 0.45 0.41 0.45 0.48 0.53 0.58 0.60 0.64 0.66 0.69 0.70 0.70 0.70 0.70 0.70 0.72 0.80 0.90 0.98 1.04 1.06
0.10 0.16 0.30 0.43 0.45 0.42 0.34 0.27 0.23 0.31 0.44 0.58 0.60 0.49 0.36 0.29 0.26 0.27 0.26 0.30 0.35 0.43 0.50 0.57 0.58 0.55 0.52 0.49 0.48 0.47 0.45 0.44 0.44 0.47 0.47 0.50 0.51 0.53 0.54 0.56 0.58 0.61 0.64 0.68 0.70 0.76 0.84 0.87 0.90
0.07 0.15 0.28 0.44 0.48 0.49 0.45 0.34 0.17 0.19 0.30 0.41 0.44 0.36 0.28 0.25 0.24 0.24 0.23 0.24 0.28 0.34 0.41 0.45 0.47 0.51 0.51 0.46 0.46 0.47 0.44 0.40 0.40 0.40 0.39 0.40 0.42 0.45 0.45 0.47 0.49 0.53 0.58 0.64 0.71 0.78 0.84 0.85 0.84